Lid_Strength_Index
2 3 4 3 3 2 3 8 10 7 5 9 11 12 9 8 8 8 8 8 10 11 11 12 12 12 11 8 9 12 12 13 17 14 11 10 12 12 13 18 17 18 20 17
3 3 4 3 3 2 5 7 7 5 6 14 15 11 9 8 9 9 9 10 9 9 11 13 12 11 9 10 9 11 11 14 17 14 12 11 12 11 12 14 16 16 20 17
3 3 3 3 3 2 4 6 11 9 9 9 10 11 11 10 8 8 8 9 8 10 11 10 12 12 9 10 9 7 9 12 14 16 14 13 14 12 12 13 18 17 17 16
3 4 3 3 3 3 4 7 9 8 13 10 10 10 10 11 11 9 8 10 10 10 14 13 13 11 11 9 8 9 11 14 14 13 13 13 14 13 12 13 14 15 15 15
4 4 3 3 3 3 5 7 8 10 11 8 9 10 10 10 10 9 10 10 10 10 12 11 12 11 12 12 9 11 12 16 15 15 13 13 14 13 13 13 13 13 14 13
4 3 3 3 3 3 7 6 6 8 11 10 10 11 10 9 8 9 8 8 10 12 10 9 9 9 10 9 10 13 15 16 17 19 15 16 18 14 13 13 13 12 15 12
3 3 4 3 3 3 4 5 6 9 14 12 10 8 8 9 9 9 9 8 10 9 8 9 10 10 9 9 10 11 16 17 19 20 19 22 14 12 11 12 11 11 11 11
4 4 4 4 3 4 4 5 6 9 15 11 9 9 9 9 9 10 9 7 8 8 11 14 14 15 14 14 11 12 13 17 19 20 21 17 15 11 11 12 12 10 11 11
4 4 4 4 3 3 3 4 6 7 10 10 7 9 9 13 12 12 10 7 8 10 16 17 18 18 15 15 14 11 13 16 17 22 22 23 15 12 10 10 15 9 10 11
4 4 4 4 3 3 2 5 5 6 9 7 7 9 10 9 11 13 10 9 10 11 18 20 19 18 14 16 16 18 17 18 21 23 23 18 13 10 9 15 14 9 9 10
4 4 5 5 4 3 3 4 5 5 8 7 6 7 9 9 9 12 9 10 11 15 16 18 18 20 15 15 14 14 15 18 19 20 23 19 11 10 12 10 11 9 9 9
5 5 5 6 5 4 3 4 3 4 6 7 6 5 6 6 7 8 10 9 10 11 15 19 16 15 14 17 17 12 15 14 16 15 16 12 10 10 9 9 10 9 9 9
5 5 5 5 5 4 3 4 5 6 9 8 7 7 5 4 5 5 9 10 8 10 11 14 16 17 15 16 15 15 11 11 14 13 11 10 9 9 8 8 8 8 8 8
4 4 4 5 5 5 4 4 5 7 10 13 10 6 6 4 4 5 6 6 8 9 10 13 13 16 12 17 14 14 11 10 11 12 10 10 8 8 7 7 7 8 7 7
4 4 4 4 4 4 4 5 5 5 6 12 12 7 6 5 5 5 6 6 8 10 13 14 13 15 13 12 13 14 10 10 13 13 9 10 9 8 7 7 7 7 8 9
5 4 4 4 4 3 6 7 5 4 5 9 12 9 8 7 5 6 6 6 8 9 11 14 13 10 12 13 14 9 8 8 8 9 9 9 9 8 7 7 7 7 9 11
4 4 4 3 3 3 6 8 6 5 6 9 11 12 9 8 7 8 8 8 9 9 12 14 15 12 11 13 15 8 8 7 7 7 8 9 9 8 8 7 9 10 11 11
4 4 4 4 3 4 5 4 6 5 7 9 12 13 11 8 12 12 8 11 9 9 11 11 13 11 12 13 10 9 8 7 7 7 7 8 8 10 12 11 11 12 12 12
4 4 4 4 5 6 5 5 5 5 6 11 12 12 12 8 10 11 11 9 13 9 11 12 10 13 13 11 11 10 9 9 9 9 8 9 12 12 12 12 12 12 13 12
4 5 7 9 6 4 4 6 9 9 10 9 12 10 11 7 12 13 12 12 12 12 11 9 12 12 11 12 11 11 10 9 9 10 12 12 13 12 11 11 12 12 11 10
7 8 9 6 5 6 10 11 12 10 11 10 11 11 11 8 11 12 11 12 12 13 13 11 13 14 14 13 12 11 11 10 11 10 10 10 10 11 11 12 11 11 11 12
6 6 6 8 9 10 12 13 12 11 12 12 11 11 9 10 9 11 12 12 12 14 12 13 15 14 14 12 12 11 10 11 11 10 10 10 10 10 10 11 12 13 13 14
8 9 12 10 12 12 13 14 13 13 13 12 12 11 12 11 10 12 12 13 13 13 14 14 14 12 10 10 11 12 11 10 10 10 10 11 13 13 13 13 13 13 12 12
11 11 13 13 14 14 14 14 13 13 13 13 13 13 13 13 12 13 13 13 13 15 18 19 13 11 11 12 12 12 13 12 12 12 13 14 13 13 14 14 13 14 13 13
13 13 16 15 14 13 13 13 13 13 12 12 13 13 12 13 13 14 14 16 19 19 20 13 12 10 10 13 13 13 13 15 13 12 13 14 14 15 14 14 15 13 13 14
13 13 15 14 14 14 13 13 13 11 12 12 12 13 14 15 14 16 18 19 19 16 12 11 10 11 11 11 11 11 10 11 11 11 12 13 14 14 13 13 14 15 15 14
13 14 13 14 13 13 13 13 12 11 12 14 14 16 16 14 17 16 13 15 13 11 11 10 10 10 11 10 10 11 11 10 10 11 11 12 14 14 13 11 9 10 11 13